| time (UTC) | temp C | wind direction | speed KPH | gust KPH | rain 1hr cm | rain 24hr cm | rain mn cm | humidity % | barometer mb |
| 20260507000036 | 8 | 264 | 0.0 | 6.4 | 0.00 | 0.79 | 0.79 | 88 | 1011.6 |
| 20260506234533 | 8 | 264 | 0.0 | 4.8 | 0.00 | 0.79 | 0.79 | 88 | 1011.6 |
| 20260506233032 | 8 | 264 | 0.0 | 3.2 | 0.00 | 0.79 | 0.79 | 88 | 1011.2 |
| 20260506231532 | 8 | 264 | 1.6 | 4.8 | 0.00 | 0.79 | 0.79 | 88 | 1011.4 |
| 20260506230028 | 8 | 264 | 0.0 | 1.6 | 0.00 | 0.79 | 0.79 | 89 | 1011.2 |
| 20260506224530 | 8 | 264 | 1.6 | 6.4 | 0.00 | 0.79 | 0.79 | 89 | 1011.2 |
| 20260506221525 | 8 | 326 | 3.2 | 8.0 | 0.00 | 0.79 | 0.79 | 90 | 1010.5 |
| 20260506220030 | 8 | 288 | 0.0 | 16.1 | 0.00 | 0.79 | 0.79 | 90 | 1010.3 |
| 20260506214521 | 8 | 286 | 9.7 | 19.3 | 0.00 | 0.79 | 0.79 | 90 | 1010.4 |
| 20260506213018 | 8 | 286 | 3.2 | 14.5 | 0.00 | 0.79 | 0.79 | 90 | 1010.3 |
| 20260506211514 | 8 | 285 | 3.2 | 17.7 | 0.00 | 0.79 | 0.79 | 91 | 1010.0 |
| 20260506210012 | 8 | 289 | 3.2 | 11.3 | 0.00 | 0.79 | 0.79 | 91 | 1009.6 |
| 20260506204509 | 8 | 242 | 0.0 | 12.9 | 0.00 | 0.79 | 0.79 | 91 | 1009.2 |
| 20260506203010 | 8 | 5 | 4.8 | 9.7 | 0.03 | 0.79 | 0.79 | 91 | 1009.1 |
| 20260506201508 | 9 | 286 | 3.2 | 11.3 | 0.03 | 0.79 | 0.79 | 91 | 1008.4 |
| 20260506200008 | 9 | 296 | 1.6 | 14.5 | 0.05 | 0.79 | 0.79 | 91 | 1008.5 |
| 20260506194505 | 9 | 274 | 4.8 | 12.9 | 0.05 | 1.07 | 0.79 | 91 | 1008.5 |
| 20260506193005 | 9 | 298 | 1.6 | 11.3 | 0.03 | 1.04 | 0.76 | 91 | 1008.4 |
| 20260506191503 | 10 | 312 | 0.0 | 9.7 | 0.03 | 1.04 | 0.76 | 90 | 1008.1 |
| 20260506190100 | 10 | 284 | 1.6 | 16.1 | 0.00 | 1.02 | 0.71 | 90 | 1008.0 |
| 20260506184601 | 10 | 302 | 3.2 | 11.3 | 0.03 | 1.02 | 0.71 | 90 | 1007.7 |
| 20260506183057 | 10 | 230 | 1.6 | 14.5 | 0.03 | 1.02 | 0.71 | 90 | 1007.7 |
| 20260506181554 | 10 | 307 | 4.8 | 14.5 | 0.03 | 1.02 | 0.71 | 89 | 1007.2 |
| 20260506180052 | 11 | 53 | 1.6 | 19.3 | 0.03 | 1.02 | 0.71 | 89 | 1007.0 |
| 20260506174548 | 12 | 268 | 4.8 | 16.1 | 0.00 | 0.99 | 0.71 | 88 | 1006.4 |
| 20260506173107 | 15 | 294 | 6.4 | 14.5 | 0.00 | 0.99 | 0.71 | 89 | 1006.2 |
| 20260506171555 | 15 | 169 | 9.7 | 17.7 | 0.00 | 0.99 | 0.71 | 90 | 1006.0 |
| 20260506170048 | 15 | 166 | 12.9 | 22.5 | 0.03 | 0.99 | 0.71 | 91 | 1006.0 |
| 20260506164544 | 15 | 180 | 6.4 | 12.9 | 0.03 | 0.99 | 0.71 | 92 | 1006.2 |
| 20260506163058 | 15 | 167 | 8.0 | 12.9 | 0.03 | 0.99 | 0.71 | 92 | 1006.3 |
| 20260506161543 | 14 | 156 | 6.4 | 11.3 | 0.05 | 0.99 | 0.71 | 91 | 1006.2 |
| 20260506160039 | 14 | 155 | 3.2 | 12.9 | 0.05 | 0.97 | 0.69 | 91 | 1006.4 |
| 20260506154545 | 14 | 159 | 6.4 | 14.5 | 0.08 | 0.97 | 0.69 | 91 | 1006.5 |
| 20260506153040 | 14 | 175 | 4.8 | 11.3 | 0.08 | 0.97 | 0.69 | 91 | 1006.2 |
| 20260506151636 | 14 | 186 | 4.8 | 14.5 | 0.08 | 0.94 | 0.66 | 91 | 1006.5 |
| 20260506150034 | 14 | 159 | 8.0 | 22.5 | 0.05 | 0.91 | 0.64 | 91 | 1006.2 |
| 20260506144537 | 14 | 159 | 8.0 | 14.5 | 0.05 | 0.89 | 0.61 | 91 | 1006.2 |
| 20260506143032 | 13 | 153 | 3.2 | 14.5 | 0.10 | 0.89 | 0.61 | 92 | 1006.1 |
| 20260506141531 | 13 | 163 | 4.8 | 11.3 | 0.13 | 0.86 | 0.58 | 92 | 1006.2 |
| 20260506140038 | 13 | 166 | 6.4 | 9.7 | 0.20 | 0.86 | 0.58 | 91 | 1006.3 |
| 20260506134527 | 13 | 168 | 4.8 | 11.3 | 0.28 | 0.84 | 0.56 | 91 | 1006.3 |
| 20260506133025 | 13 | 146 | 0.0 | 8.0 | 0.30 | 0.79 | 0.51 | 91 | 1006.7 |
| 20260506131524 | 13 | 146 | 1.6 | 8.0 | 0.33 | 0.71 | 0.46 | 91 | 1007.0 |
| 20260506130027 | 13 | 155 | 4.8 | 16.1 | 0.28 | 0.66 | 0.38 | 91 | 1007.2 |
| 20260506124523 | 13 | 157 | 4.8 | 12.9 | 0.18 | 0.56 | 0.28 | 91 | 1007.5 |
| 20260506123022 | 13 | 162 | 4.8 | 11.3 | 0.10 | 0.48 | 0.20 | 91 | 1007.0 |
| 20260506121520 | 12 | 276 | 0.0 | 1.6 | 0.05 | 0.41 | 0.13 | 91 | 1006.9 |
| 20260506120027 | 12 | 276 | 0.0 | 0.0 | 0.03 | 0.38 | 0.10 | 90 | 1006.9 |
| 20260506114521 | 12 | 276 | 0.0 | 3.2 | 0.03 | 0.38 | 0.10 | 90 | 1007.2 |
| 20260506113019 | 12 | 276 | 0.0 | 3.2 | 0.03 | 0.38 | 0.10 | 90 | 1007.3 |
| 20260506111521 | 12 | 276 | 0.0 | 3.2 | 0.03 | 0.36 | 0.08 | 90 | 1007.1 |
| 20260506110018 | 12 | 276 | 0.0 | 1.6 | 0.05 | 0.36 | 0.08 | 89 | 1007.2 |
| 20260506104517 | 12 | 276 | 0.0 | 1.6 | 0.05 | 0.36 | 0.08 | 90 | 1007.2 |
| 20260506103021 | 12 | 276 | 0.0 | 3.2 | 0.05 | 0.36 | 0.08 | 89 | 1007.2 |
| 20260506101517 | 12 | 276 | 0.0 | 3.2 | 0.03 | 0.33 | 0.05 | 89 | 1007.0 |
| 20260506100015 | 12 | 276 | 0.0 | 0.0 | 0.00 | 0.30 | 0.03 | 89 | 1006.8 |
| 20260506094515 | 12 | 276 | 0.0 | 1.6 | 0.00 | 0.30 | 0.03 | 89 | 1006.9 |
| 20260506093018 | 12 | 276 | 0.0 | 1.6 | 0.03 | 0.30 | 0.03 | 88 | 1006.8 |
| 20260506091515 | 12 | 276 | 0.0 | 1.6 | 0.03 | 0.30 | 0.03 | 88 | 1007.0 |
| 20260506084513 | 12 | 276 | 0.0 | 3.2 | 0.03 | 0.30 | 0.03 | 88 | 1007.5 |
| 20260506083009 | 12 | 276 | 1.6 | 3.2 | 0.00 | 0.28 | 0.00 | 88 | 1007.6 |
| 20260506081509 | 12 | 276 | 1.6 | 4.8 | 0.00 | 0.28 | 0.00 | 88 | 1007.6 |
| 20260506073009 | 12 | 276 | 0.0 | 1.6 | 0.00 | 0.28 | 0.00 | 88 | 1007.3 |
| 20260506071507 | 12 | 276 | 0.0 | 1.6 | 0.00 | 0.28 | 0.00 | 87 | 1007.2 |
| 20260506061604 | 12 | 276 | 0.0 | 3.2 | 0.00 | 0.28 | 0.00 | 86 | 1007.9 |
| 20260506044547 | 13 | 276 | 0.0 | 3.2 | 0.00 | 0.28 | 0.00 | 84 | 1009.1 |
| 20260506043051 | 13 | 276 | 0.0 | 0.0 | 0.00 | 0.28 | 0.00 | 83 | 1009.0 |
| 20260506041557 | 13 | 276 | 0.0 | 1.6 | 0.00 | 0.28 | 0.00 | 82 | 1009.0 |
| 20260506040043 | 13 | 276 | 0.0 | 3.2 | 0.00 | 0.28 | 0.00 | 82 | 1009.2 |
| 20260506034541 | 13 | 276 | 0.0 | 3.2 | 0.00 | 0.28 | 0.28 | 83 | 1009.5 |
| 20260506033042 | 13 | 276 | 0.0 | 4.8 | 0.00 | 0.28 | 0.28 | 82 | 1009.7 |
| 20260506031542 | 13 | 276 | 0.0 | 4.8 | 0.00 | 0.28 | 0.28 | 83 | 1009.5 |
| 20260506030038 | 14 | 276 | 1.6 | 9.7 | 0.00 | 0.28 | 0.28 | 85 | 1009.3 |
| 20260506024536 | 15 | 345 | 3.2 | 9.7 | 0.00 | 0.28 | 0.28 | 87 | 1009.4 |
| 20260506023047 | 15 | 294 | 1.6 | 6.4 | 0.00 | 0.28 | 0.28 | 88 | 1009.2 |
| 20260506021533 | 15 | 294 | 0.0 | 4.8 | 0.00 | 0.28 | 0.28 | 88 | 1008.9 |
| 20260506020105 | 16 | 294 | 1.6 | 3.2 | 0.00 | 0.28 | 0.28 | 88 | 1008.7 |
| 20260506014631 | 16 | 294 | 0.0 | 3.2 | 0.00 | 0.28 | 0.28 | 88 | 1008.6 |
| 20260506013030 | 16 | 294 | 0.0 | 1.6 | 0.00 | 0.28 | 0.28 | 88 | 1008.5 |
| 20260506011530 | 16 | 294 | 1.6 | 6.4 | 0.00 | 0.28 | 0.28 | 87 | 1008.0 |
| 20260506010030 | 16 | 294 | 1.6 | 4.8 | 0.00 | 0.28 | 0.28 | 86 | 1007.9 |
| 20260506004527 | 16 | 294 | 0.0 | 1.6 | 0.00 | 0.28 | 0.28 | 86 | 1007.8 |
| 20260506003027 | 17 | 294 | 0.0 | 4.8 | 0.00 | 0.28 | 0.28 | 86 | 1007.4 |
| 20260506001526 | 17 | 294 | 0.0 | 0.0 | 0.00 | 0.28 | 0.28 | 86 | 1007.4 |